Location: Ernez
(36.4595°N, 29.8755°E)
Time: 08:34:38
(UTC+00:00)

SL-12 R/B(2) - Pass Details

Date: 13 November 2025
Orbit: 1174 x 2175 km, 63.4° (Epoch: 05 December)

Event Time Altitude Azimuth Distance (km) Brightness Sun altitude
Rises 15:19:34 0° 194° (SSW) 4,074 7.2 -5.8°
Reaches altitude 10° 15:22:12 10° 189° (S) 3,159 6.6 -6.3°
Maximum altitude 15:29:28 55° 113° (ESE) 1,565 4.3 -7.7°
Drops below altitude 10° 15:38:04 10° 39° (NE) 3,719 6.0 -9.3°
Sets 15:41:25 0° 36° (NE) 4,850 6.6 -10.0°
